This is the latest recevied weather packets stored in our database for station/object CALDNA-WX. If no packets are shown the sender has not sent any weather packets the latest 10 day(s).
| Time | Temp. | Humidity | Pressure | Rain* | Wind** | Luminosity | Snow |
|---|---|---|---|---|---|---|---|
| 1777862721 | 8.89° C | 68% | 979.6 hPa | 0 mm | - | - | - |
| 1777861837 | 8.89° C | 71% | 979.6 hPa | 0 mm | - | - | - |
| 1777860921 | 9.44° C | 71% | 979.6 hPa | 0 mm | - | - | - |
| 1777860049 | 9.44° C | 71% | 979.6 hPa | 0 mm | - | - | - |
| 1777859121 | 9.44° C | 70% | 980.4 hPa | 0 mm | - | - | - |
| 1777858240 | 10° C | 70% | 980.4 hPa | 0 mm | - | - | - |
| 1777857320 | 9.44° C | 70% | 980.4 hPa | 0 mm | - | - | - |
| 1777856449 | 10° C | 70% | 980.4 hPa | 0 mm | - | - | - |
| 1777855521 | 10° C | 64% | 980.9 hPa | 0 mm | - | - | - |
| 1777854640 | 11.11° C | 67% | 981.2 hPa | 0 mm | - | - | - |
| 1777853721 | 11.11° C | 67% | 981.2 hPa | 0 mm | - | - | - |
| 1777852850 | 11.67° C | 67% | 981.2 hPa | 0 mm | - | - | - |
| 1777851922 | 11.67° C | 59% | 982.1 hPa | 0 mm | - | - | - |
| 1777851041 | 12.22° C | 53% | 981.4 hPa | 0 mm | - | - | - |
| 1777850122 | 13.33° C | 53% | 981.5 hPa | 0 mm | - | - | - |
| 1777849245 | 13.33° C | 53% | 981.5 hPa | 0 mm | - | - | - |
| 1777848322 | 13.89° C | 52% | 982.2 hPa | 0 mm | - | - | - |
| 1777847441 | 13.89° C | 52% | 982.3 hPa | 0 mm | - | - | - |
| 1777846522 | 13.89° C | 52% | 982.3 hPa | 0 mm | - | - | - |
| 1777845654 | 13.89° C | 52% | 982.3 hPa | 0 mm | - | - | - |
| 1777844722 | 13.89° C | 51% | 982.6 hPa | 0 mm | - | - | - |
| 1777843839 | 13.89° C | 52% | 982.4 hPa | 0 mm | - | - | - |
| 1777842921 | 13.33° C | 52% | 982.4 hPa | 0 mm | - | - | - |
| 1777842047 | 13.33° C | 52% | 982.4 hPa | 0 mm | - | - | - |
| 1777841121 | 13.89° C | 52% | 983.5 hPa | 0 mm | - | - | - |
* Rain latest hour (hover to see other rain measurements)
** Current wind speed in m/s (hover to see current wind gust speed)